Back to catalog

STARLINK-35242

AliveCommunicationsVLEO
NORAD 65493·PAYLOAD·🇺🇸 United States

Launched Sep 5, 2025 from Cape Canaveral Space Force Station

Loading…

Next Passes (next 24 hours)

TLE

FreshSource: CelesTrak SupGP

Epoch: Sep 14, 2026, 21:17 UTC

1 65493C 25198B   26257.88729167  .00096297  00000+0  28426-2 0  2575
2 65493  53.1578 107.6624 0001487  73.1973 194.8587 15.34370485    17

Track STARLINK-35242 in real time with AllMySat

Download on the App Store